Location: Coupvray
(48.8929°N, 2.7967°E)
Time: 04:46:31
(UTC+00:00)

CENTAUR R/B - Pass Details

Date: 14 July 2020
Orbit: 760 x 1428 km, 63.5° (Epoch: 05 August)

Event Time Altitude Azimuth Distance (km) Brightness Sun altitude
Rises 03:09:21 0° 179° (S) 3,393 4.9 -7.3°
Reaches altitude 10° 03:11:59 10° 168° (SSE) 2,540 4.4 -6.9°
Maximum altitude 03:16:54 28° 111° (ESE) 1,742 4.2 -6.4°
Drops below altitude 10° 03:22:29 10° 56° (NE) 2,923 6.8 -5.7°
Sets 03:25:44 0° 46° (NE) 4,004 8.7 -5.3°
